Terug naar catalogus

ONEWEB-0392

ActiefCommunicatiePO
NORAD 50472·PAYLOAD·🇬🇧 United Kingdom

Gelanceerd Dec 27, 2021 vanaf Baikonur Cosmodrome

Loading…

Volgende Passages (komende 24 uur)

TLE

VersSource: CelesTrak SupGP

Epoch: Sep 14, 2026, 13:21 UTC

1 50472C 21132D   26257.55677500  .00000832  00000+0  21446-2 0  2572
2 50472  87.9217 348.1063 0002006 113.1994 357.7634 13.17650853    10

Volg ONEWEB-0392 in realtime met AllMySat

Download on the App Store